Regional Weather Roundup
Issued by NWS Newport/Morehead, NC

Current Version | Previous Version | Text Only | Print | Product List | Glossary On
Versions: 1 2 3 4 5 6 7 8 9 10 11 12 13 14 15 16 17 18 19 20 21 22 23 24 25 26 27 28 29 30 31 32 33 34 35 36 37 38 39 40 41 42 43 44 45 46 47 48 49 50
000 ASUS42 KMHX 280110 RWRMHX WEATHER ROUNDUP FOR EASTERN NORTH CAROLINA NATIONAL WEATHER SERVICE NEWPORT/MOREHEAD CITY NC 800 PM EST SAT DEC 27 2014 NOTE: "FAIR" INDICATES FEW OR NO CLOUDS BELOW 12,000 FEET WITH NO SIGNIFICANT WEATHER AND/OR OBSTRUCTIONS TO VISIBILITY NCZ015>017-031-032-045>047-102-103-280200- NORTH COAST CITY SKY/WX TMP DP RH WIND PRES REMARKS EDENTON N/A 47 42 82 S5 30.25S ELIZABETH CITY CLEAR 50 41 71 S5 30.25R KITTY HAWK CLEAR 49 40 70 SW3 30.25R MANTEO CLEAR 48 45 87 CALM 30.26R $$ NCZ045>047-081-094-103-104-280200- CENTRAL COAST CITY SKY/WX TMP DP RH WIND PRES REMARKS FRISCO CLEAR 42 40 92 S3 30.26S SWANQUARTER N/A 48 N/A N/A SE3 30.21F $$ NCZ095-097-098-100-101-280200- SOUTHERN COAST CITY SKY/WX TMP DP RH WIND PRES REMARKS BEAUFORT CLEAR 50 46 86 S6 30.26F CEDAR ISLAND N/A 48 N/A N/A SE5 30.30S JACKSONVILLE PTCLDY 50 46 86 S5 30.26S PINEY ISLAND CLEAR 50 44 80 SE6 30.25F WILMINGTON CLEAR 48 44 86 CALM 30.25F $$ NCZ011>013-027>030-043-044-078>080-089-090>093-098-280200- COASTAL PLAIN CITY SKY/WX TMP DP RH WIND PRES REMARKS AHOSKIE CLEAR 41 38 89 CALM 30.25R CLINTON CLOUDY 48 43 81 CALM 30.25F ELIZABETHTOWN PTCLDY 53 46 77 SE5 30.24S GOLDSBORO CLOUDY 47 47 97 E2 30.23R GREENVILLE PTCLDY 45 41 87 CALM 30.26R HAVELOCK CLEAR 50 43 77 S7 30.26F KENANSVILLE MOCLDY 46 40 79 CALM 30.26S KINSTON MOCLDY 45 41 87 SE3 30.26R NEW BERN CLEAR 50 42 74 S5 30.26F RICHLANDS PTCLDY 46 39 76 S5 30.27R ROCKY MOUNT PTCLDY 46 41 82 CALM 30.24S WASHINGTON CLEAR 48 41 77 CALM 30.26R WHITEVILLE MOCLDY 54 45 71 CALM 30.25S $$ AMZ130-135-150-152-154-156-158-170-250-252-270-ANZ085-086-088-633-658-670-280200- MARINE OBSERVATIONS STATION/POSITION TIME TEMP WIND PRES WAVE SWELL AIR SEA DIR/SP/G HT/PER HT/PER (UTC) (F) (DEG/KT/KT) (MB) (FT/S) (FT/S) CHESAPEAKE LIGHT 0000 50 180/ 18/ 18 1024.0 64 E VA BEACH 0100 53 53 170/ 8/ 10 1023.3 3/15 3/15 DUCK 0100 51 49 190/ 9/ 11 1023.5 2 E DUCK 0000 48 N/A 3/15 3/15 10 NE DUCK 0100 50 N/A 3/15 3/15 OREGON INLET 0100 51 53 180/ 5/ 6 1024.3 13E OREGON INLT 0100 53 N/A 4/14 3/14 HATTERAS CG 0100 53 55 170/ 2/ 3 1025.1 DIAMOND BUOY 0100 64 1025.0 4/15 17 S OCRACOKE NOT AVBL CAPE LOOKOUT 0000 56 160/ 6/ 7 1024.7 BEAUFORT LAB 0100 54 55 160/ 4/ 5 1023.7 30 SE NEW RIVER 0000 60 61 170/ 2/ 4 1025.5 5 SE WRIGHTSVLE NOT AVBL 225 S CAPE HAT 0021 69 74 140/ 8/ 10 1025.7 5/15 5/15 41 SE CHARLESTON 0100 70 74 80/ 10/ 12 1023.5 2/ 8 2/ 8 $$

USA.gov is the U.S. government's official web portal to all federal, state and local government web resources and services.